TimeEDT,TemperatureF,Dew PointF,Humidity,Sea Level PressureIn,VisibilityMPH,Wind Direction,Wind SpeedMPH,Gust SpeedMPH,PrecipitationIn,Events,Conditions,WindDirDegrees,DateUTC
12:39 AM,62.6,57.2,82,30.23,10.0,West,3.5,-,N/A,,Overcast,260,2013-09-19 04:39:00
12:48 AM,62.6,57.2,82,30.23,10.0,Calm,Calm,-,N/A,,Overcast,0,2013-09-19 04:48:00
12:52 AM,63.0,57.0,81,30.15,10.0,Calm,Calm,-,N/A,,Overcast,0,2013-09-19 04:52:00
1:11 AM,62.6,57.2,82,30.23,10.0,Calm,Calm,-,N/A,,Overcast,0,2013-09-19 05:11:00
1:52 AM,63.0,57.0,81,30.13,10.0,Calm,Calm,-,N/A,,Overcast,0,2013-09-19 05:52:00
2:52 AM,63.0,57.0,81,30.13,10.0,Calm,Calm,-,N/A,,Overcast,0,2013-09-19 06:52:00
3:07 AM,62.6,57.2,82,30.22,10.0,WSW,3.5,-,N/A,,Overcast,250,2013-09-19 07:07:00
3:52 AM,63.0,57.0,81,30.13,10.0,West,3.5,-,N/A,,Overcast,260,2013-09-19 07:52:00
4:52 AM,63.0,57.0,81,30.12,10.0,WSW,3.5,-,N/A,,Overcast,250,2013-09-19 08:52:00
5:52 AM,63.0,57.0,81,30.12,10.0,WSW,3.5,-,N/A,,Overcast,250,2013-09-19 09:52:00
6:26 AM,62.6,57.2,82,30.20,10.0,WSW,4.6,-,N/A,,Overcast,250,2013-09-19 10:26:00
6:52 AM,63.0,57.9,84,30.13,10.0,WSW,3.5,-,N/A,,Overcast,250,2013-09-19 10:52:00
7:52 AM,63.0,57.9,84,30.14,7.0,West,3.5,-,0.00,,Overcast,260,2013-09-19 11:52:00
8:43 AM,62.6,59.0,88,30.23,2.5,West,4.6,-,0.01,Rain,Light Rain,260,2013-09-19 12:43:00
8:52 AM,63.0,59.0,87,30.15,2.0,WSW,4.6,-,0.02,Rain,Light Rain,250,2013-09-19 12:52:00
9:06 AM,62.6,59.0,88,30.23,3.0,West,3.5,-,0.00,,Overcast,260,2013-09-19 13:06:00
9:38 AM,62.6,59.0,88,30.24,4.0,West,4.6,-,0.00,,Overcast,260,2013-09-19 13:38:00
9:52 AM,64.0,59.0,84,30.17,4.0,WSW,5.8,-,0.00,,Haze,240,2013-09-19 13:52:00
10:52 AM,64.9,60.1,84,30.17,6.0,West,3.5,-,0.00,,Haze,260,2013-09-19 14:52:00
11:28 AM,66.2,60.8,83,30.24,6.0,WSW,6.9,-,N/A,,Haze,250,2013-09-19 15:28:00
11:52 AM,66.0,61.0,84,30.17,7.0,NW,3.5,-,N/A,,Overcast,310,2013-09-19 15:52:00
12:34 PM,66.2,60.8,83,30.24,2.0,Calm,Calm,-,0.01,Rain,Light Rain,0,2013-09-19 16:34:00
12:47 PM,66.2,60.8,83,30.24,3.0,West,6.9,-,0.01,,Haze,270,2013-09-19 16:47:00
12:52 PM,64.9,61.0,87,30.16,3.0,WNW,5.8,-,0.01,,Overcast,290,2013-09-19 16:52:00
1:16 PM,64.4,60.8,88,30.23,3.0,West,5.8,-,0.00,Rain,Light Rain,270,2013-09-19 17:16:00
1:52 PM,66.0,61.0,84,30.14,3.0,West,6.9,-,0.01,Rain,Light Rain,260,2013-09-19 17:52:00
2:04 PM,66.2,62.6,88,30.22,4.0,West,6.9,-,0.00,Rain,Light Rain,260,2013-09-19 18:04:00
2:36 PM,66.2,62.6,88,30.21,9.0,West,6.9,-,0.00,,Overcast,270,2013-09-19 18:36:00
2:52 PM,66.9,61.0,81,30.13,10.0,West,5.8,-,0.00,,Overcast,260,2013-09-19 18:52:00
3:52 PM,66.9,61.0,81,30.12,10.0,West,4.6,-,N/A,,Overcast,270,2013-09-19 19:52:00
4:52 PM,66.0,62.1,87,30.12,5.0,West,6.9,-,0.05,Rain,Light Rain,260,2013-09-19 20:52:00
5:52 PM,68.0,63.0,84,30.10,10.0,WSW,5.8,-,0.00,,Overcast,240,2013-09-19 21:52:00
6:45 PM,66.2,62.6,88,30.18,10.0,WSW,4.6,-,N/A,,Overcast,250,2013-09-19 22:45:00
6:52 PM,66.9,62.1,84,30.09,10.0,West,4.6,-,N/A,,Overcast,260,2013-09-19 22:52:00
7:25 PM,66.2,62.6,88,30.17,9.0,WSW,3.5,-,N/A,,Mostly Cloudy,250,2013-09-19 23:25:00
7:52 PM,66.0,61.0,84,30.09,7.0,West,4.6,-,N/A,,Mostly Cloudy,260,2013-09-19 23:52:00
8:00 PM,66.2,62.6,88,30.17,6.0,West,4.6,-,N/A,,Mostly Cloudy,260,2013-09-20 00:00:00
8:29 PM,64.4,60.8,88,30.17,4.0,SW,3.5,-,N/A,,Overcast,230,2013-09-20 00:29:00
8:36 PM,64.4,60.8,88,30.17,1.8,Calm,Calm,-,N/A,,Overcast,0,2013-09-20 00:36:00
8:44 PM,64.4,60.8,88,30.17,1.2,Calm,Calm,-,N/A,,Overcast,0,2013-09-20 00:44:00
8:46 PM,64.4,60.8,88,30.17,1.0,Calm,Calm,-,N/A,,Overcast,0,2013-09-20 00:46:00
8:52 PM,64.9,60.1,84,30.10,1.0,Calm,Calm,-,N/A,,Haze,0,2013-09-20 00:52:00
9:03 PM,64.4,60.8,88,30.17,1.5,Calm,Calm,-,N/A,,Overcast,0,2013-09-20 01:03:00
9:08 PM,64.4,60.8,88,30.17,3.0,Calm,Calm,-,N/A,,Overcast,0,2013-09-20 01:08:00
9:52 PM,66.0,61.0,84,30.09,4.0,WSW,4.6,-,N/A,,Haze,250,2013-09-20 01:52:00
10:52 PM,66.0,61.0,84,30.08,6.0,West,4.6,-,N/A,,Haze,260,2013-09-20 02:52:00
11:25 PM,64.4,60.8,88,30.16,2.5,WSW,5.8,-,N/A,,Overcast,250,2013-09-20 03:25:00
11:34 PM,64.4,60.8,88,30.16,4.0,WSW,5.8,-,N/A,,Overcast,250,2013-09-20 03:34:00
11:52 PM,66.0,61.0,84,30.08,5.0,WSW,4.6,-,N/A,,Haze,250,2013-09-20 03:52:00